| time (UTC) | temp C | wind direction | speed KPH | gust KPH | rain 1hr cm | rain 24hr cm | rain mn cm | humidity % | barometer mb |
| 20260504034540 | 10 | 128 | 1.6 | 0.0 | 0.00 | 0.00 | 0.00 | 55 | 1021.3 |
| 20260504033053 | 10 | 177 | 1.6 | 0.0 | 0.00 | 0.00 | 0.00 | 54 | 1021.2 |
| 20260504031547 | 10 | 125 | 0.0 | 0.0 | 0.00 | 0.00 | 0.00 | 54 | 1021.1 |
| 20260504030029 | 10 | 179 | 1.6 | 0.0 | 0.00 | 0.00 | 0.00 | 53 | 1021.2 |
| 20260504024542 | 10 | 134 | 1.6 | 0.0 | 0.00 | 0.00 | 0.00 | 53 | 1021.3 |
| 20260504023039 | 10 | 155 | 1.6 | 0.0 | 0.00 | 0.00 | 0.00 | 52 | 1021.3 |
| 20260504021544 | 10 | 151 | 0.0 | 0.0 | 0.00 | 0.00 | 0.00 | 50 | 1021.2 |
| 20260504020031 | 10 | 135 | 0.0 | 0.0 | 0.00 | 0.00 | 0.00 | 48 | 1021.1 |
| 20260504014539 | 11 | 135 | 0.0 | 0.0 | 0.00 | 0.00 | 0.00 | 48 | 1020.8 |
| 20260504013042 | 11 | 135 | 0.0 | 0.0 | 0.00 | 0.00 | 0.00 | 47 | 1020.6 |
| 20260504011545 | 11 | 135 | 0.0 | 0.0 | 0.00 | 0.00 | 0.00 | 45 | 1020.5 |
| 20260504010041 | 11 | 134 | 0.0 | 0.0 | 0.00 | 0.00 | 0.00 | 42 | 1020.3 |
| 20260504004537 | 12 | 65 | 0.0 | 0.0 | 0.00 | 0.00 | 0.00 | 38 | 1020.1 |
| 20260504003044 | 12 | 65 | 0.0 | 0.0 | 0.00 | 0.00 | 0.00 | 36 | 1019.7 |
| 20260504001608 | 13 | 65 | 0.0 | 0.0 | 0.00 | 0.00 | 0.00 | 33 | 1019.4 |
| 20260504000040 | 14 | 65 | 0.0 | 0.0 | 0.00 | 0.00 | 0.00 | 31 | 1019.2 |
| 20260503234544 | 15 | 65 | 0.0 | 0.0 | 0.00 | 0.00 | 0.00 | 29 | 1019.1 |
| 20260503233046 | 15 | 65 | 0.0 | 0.0 | 0.00 | 0.00 | 0.00 | 26 | 1019.0 |
| 20260503231602 | 16 | 65 | 0.0 | 0.0 | 0.00 | 0.00 | 0.00 | 24 | 1018.8 |
| 20260503230045 | 16 | 67 | 0.0 | 0.0 | 0.00 | 0.00 | 0.00 | 22 | 1018.7 |
| 20260503224549 | 17 | 13 | 1.6 | 0.0 | 0.00 | 0.00 | 0.00 | 20 | 1018.9 |
| 20260503223057 | 18 | 234 | 1.6 | 0.0 | 0.00 | 0.00 | 0.00 | 18 | 1018.8 |
| 20260503221504 | 18 | 220 | 0.0 | 0.0 | 0.00 | 0.00 | 0.00 | 18 | 1018.6 |
| 20260503220104 | 18 | 337 | 1.6 | 0.0 | 0.00 | 0.00 | 0.00 | 19 | 1018.7 |
| 20260503214549 | 19 | 253 | 1.6 | 0.0 | 0.00 | 0.00 | 0.00 | 17 | 1018.7 |